User: anonymous   Login
Location: New Frontier Mobile Home Park
(32.8448°N, 116.9675°W)
Time: 18:49:05
(UTC+00:00)
Language:

NOSS 3-2 (C) - Orbit

View from above orbital plane
View from above orbital plane
View from above satellite
View from above satellite

Ground track
Ground track

The orbit data is extracted from the following two-line orbital elements,

1 28097U 03054C   20259.85492608 0.00000000  00000-0  00000-0 0    01
2 28097  63.4145 167.4008 0409373 359.1500   0.8500 13.40766338    00
Epoch (UTC): 15 September 2020 20:31:05
Eccentricity: 0.0409373
inclination: 63.4145°
perigee height: 800 km
apogee height: 1413 km
right ascension of ascending node: 167.4008°
argument of perigee: 359.1500°
revolutions per day: 13.40766338
mean anomaly at epoch: 0.8500°
orbit number at epoch: 0

The dashed part of the orbit path shows where the satellite is in the earth's shadow,  

DLR